TECHDEMOSAT-1 (TDS-1)

Last updated on Sun Jun 21 2026 00:03:42 GMT+0000 (Coordinated Universal Time)

1 40076U 14037H 26170.93560842 .00007129 00000+0 40428-3 0 9994 2 40076 98.3818 163.4207 0004661 253.6503 106.4213 15.13326666648644
UTC large
Height (km)
Speed (km/s)
/
Latitude / Longitude
Inclination (degrees)
Orbital Period (minutes)
Azimuth
Elevation
Range (km)
Doppler Factor

Next 0 passes for location: London (51.5072 / 0.1276)

No passes found over London.
TECHDEMOSAT-1 (TDS-1)